weather.gov     
National Weather Service

Regional Weather Roundup
NWS Homepage
This page is being discontinued on March 12, 2014.
The same data is available at this site. Please update your bookmarks.
Thank you, and we apologize for the inconvenience.
Please send an email to SR-SRH.Webmaster@noaa.gov with any concerns.


Current Version
Previous Version:    01  02  03  04  05  06  07  08  09  10  11  12  13  14  15  16  17  18  19  20  21  22  23  24  25  26  27  28  29  30  
   31  32  33  34  35  36  37  38  39  40  41  42  43  44  45  46  47  48  49  50  51  52  53  54  55  56  57  58  59  60  
[Printable]
151
ASUS43 KBIS 231920
RWRBIS

NWR BROADCAST TEXT
NATIONAL WEATHER SERVICE BISMARCK ND
100 PM CST SUN NOV 23 2014

NOTE: "FAIR" INDICATES FEW OR NO CLOUDS BELOW 12,000 FEET WITH NO
SIGNIFICANT WEATHER AND/OR OBSTRUCTIONS TO VISIBILITY.


CITY           SKY/WX    TMP DP  RH WIND       PRES   REMARKS
WILLISTON      CLOUDY    20  11  68 NW20      29.73R WCI   4
MINOT          LGT SNOW  20  13  74 W26       29.58R VSB 3/4 WCI   2
MINOT AFB      LGT SNOW  19  14  79 NW22      29.59R WCI   3
BISMARCK       CLOUDY    24  15  68 NW24G38   29.61R WCI   8
DICKINSON      CLOUDY    25  16  68 NW28G45   29.61S WCI   9
GARRISON         N/A     21  13  71 NW30G40   29.57R WCI   3
HETTINGER ARPT PTSUNNY   26  17  68 NW39G48   29.64R WCI   8
JAMESTOWN      CLOUDY    30  19  63 NW22G28   29.49R WCI  17
BEACH          LGT RAIN  25  19  80 NW32G43   29.71S WCI   7
CARRINGTON     CLOUDY    25  19  80 W21G30    29.48S WCI  10
CROSBY         FLURRIES  16  10  79 NW24G33   29.69R WCI  -3
HARVEY         CLOUDY    21  18  86 NW26G37   29.50R WCI   4
HAZEN          FLURRIES  23  14  68 NW23G31   29.64R WCI   7
LINTON         CLOUDY    27  18  69 NW29G41   29.57S WCI  11
MANDAN         CLOUDY    23  14  68 NW29G37   29.60R WCI   6
OAKES            N/A     36  27  69 W26G32    29.48F
RUGBY          MIX PCPN  23  19  86 N20G26    29.49R WCI   8
STANLEY        FLURRIES  16  10  79 NW23G31   29.61R WCI  -2
TIOGA          FLURRIES  16  10  79 NW25G37   29.66R WCI  -3
$$

CITY           SKY/WX    TMP DP  RH WIND       PRES   REMARKS
GRAND FORKS    CLOUDY    37  27  65 NW17      29.43R
GRAND FORKS AF CLOUDY    37  28  69 NW16      29.43R
DEVILS LAKE    CLOUDY    28  16  59 W14       29.44R WCI  17
FARGO          CLOUDY    41  31  67 NW21      29.44S
CANDO          MIX PCPN  21  19  93 N15G25    29.49R WCI   8
CAVALIER       CLOUDY    23  23 100 NW18      29.46R FOG     WCI   9
GRAFTON        CLOUDY    27  27 100 N15       29.45R FOG     WCI  15
GWINNER        MOCLDY    37  28  70 W22G32    29.48S
LANGDON        CLOUDY    23  19  86 N14G20    29.44R FOG     WCI  11
ROLLA          MOCLDY    18  18 100 N25       29.49R WCI  -1
WALHALLA         N/A     21  21 100 NW21G26   29.48R WCI   6
$$

CITY           SKY/WX    TMP DP  RH WIND       PRES   REMARKS
ABERDEEN       CLOUDY    38  26  62 NW23G29   29.55S
MOBRIDGE       PTSUNNY   36  24  62 NW25G40   29.55F
BUFFALO          N/A     33  19  56 NW45G59   29.59F WCI  17
RAPID CITY     MOSUNNY   43  20  39 NW39G61   29.68F
GLASGOW        CLOUDY    26  16  65 NW28G37   29.83R WCI  10
SIDNEY         PTSUNNY   25  16  68 NW20G28   29.76S WCI  11
WOLF POINT     CLOUDY    27  17  66 NW21      29.82R WCI  13
GLENDIVE       CLOUDY    27  19  74 W24G32    29.78R WCI  12
MILES CITY     CLOUDY    39  23  52 NW28G33   29.81S
BAKER          CLOUDY    27  18  69 NW29G41   29.72F WCI  11
$$

CITY           SKY/WX    TMP DP  RH WIND       PRES   REMARKS
BILLINGS       PTSUNNY   40  17  39 W14G22    29.90S
GREAT FALLS    SUNNY     42  15  33 W24G33    29.89F
REGINA         MOSUNNY   12   9  85 NW17      29.77S WCI  -5
ESTEVAN        LGT SNOW  16   9  73 NW23G32   29.66  DRFTSNOWWCI  -2
$$





U.S. Dept. of Commerce
NOAA National Weather Service
1325 East West Highway
Silver Spring, MD 20910
E-mail: w-nws.webmaster@noaa.gov
Page last modified: May 16, 2007
NATIONAL WEATHER SERVICE: for Safety, for Work, for Fun - FOR LIFE